Hourly Data Report for October 04, 2014

All times are specified in Local Standard Time (LST). Add 1 hour to adjust for Daylight Saving Time where and when it is observed.

ARVIAT A
NUNAVUT

61°05'38.000" N
94°04'18.000" W
10.40 m
2300427
71174
YEK

Download Data

Hourly Data (October 2014)
Hourly Data Report for October 4, 2014
Temp Definition
°C
Dew Point Temp Definition
°C
Rel Hum Definition
%
Wind Dir Definition
10's deg

Wind Spd Definition
km/h
Visibility Definition
km
Stn Press Definition
kPa
Hmdx Definition


Wind Chill Definition


Weather Definition


TIME
00:00 Legend Double Dagger -3.8 -5.3 90 34 35 16.1 101.29   -12 LegendNANA
01:00 Legend Double Dagger -3.6 -5.1 89 35 37 16.1 101.27   -12 LegendNANA
02:00 Legend Double Dagger -3.4 -4.9 89 35 34 16.1 101.25   -11 LegendNANA
03:00 Legend Double Dagger -3.3 -4.8 89 35 37 16.1 101.21   -12 LegendNANA
04:00 Legend Double Dagger -3.4 -4.7 91 35 34 16.1 101.19   -11 LegendNANA
05:00 Legend Double Dagger -3.3 -4.6 91 35 37 16.1 101.15   -12 LegendNANA
06:00 Legend Double Dagger -3.1 -4.4 91 35 39 16.1 101.12   -11 LegendNANA
07:00 Legend Double Dagger -3.0 -4.1 92 35 35 16.1 101.09   -11 LegendNANA
08:00 Legend Double Dagger -2.8 -3.9 92 36 34 16.1 101.06   -11 LegendNANA
09:00 Legend Double Dagger -2.5 -3.9 90 36 37 14.5 101.01   -10 LegendNANA
10:00 Legend Double Dagger -2.6 -4.0 90 35 43 14.5 100.93   -11 LegendNANA
11:00 Legend Double Dagger -2.3 -3.4 92 36 39 12.9 100.91   -10 LegendNANA
12:00 Legend Double Dagger -2.3 -3.1 94 36 35 6.4 100.89   -10 Fog
13:00 Legend Double Dagger -2.1 -2.8 95 36 41 4.8 100.84   -10 Fog
14:00 Legend Double Dagger -2.3 -3.3 93 1 41 6.4 100.80   -11 Fog
15:00 Legend Double Dagger -2.2 -3.4 91 36 39 6.4 100.79   -10 Fog
16:00 Legend Double Dagger -2.5 -3.5 93 35 43 6.4 100.74   -11 Fog
17:00 Legend Double Dagger -2.5 -3.5 93 36 43 6.4 100.73   -11 Fog
18:00 Legend Double Dagger -2.6 -3.6 93 36 43 4.8 100.70   -11 Fog
19:00 Legend Double Dagger -2.7 -3.7 93 1 39 8.1 100.69   -11 Fog
20:00 Legend Double Dagger -2.9 -3.7 94 36 41 4.8 100.62   -11 Fog
21:00 Legend Double Dagger -2.8 -3.8 93 36 45 4.8 100.50   -12 Fog
22:00 Legend Double Dagger -2.4 -3.5 92 36 52 4.8 100.38   -12 Fog
23:00 Legend Double Dagger -2.1 -3.1 93 36 46 6.4 100.32   -11 Fog

Notes on Data Quality.

Legend

  • E = Estimated
  • M = Missing
  • NA = Not Available
  • ‡ = Partner data that is not subject to review by the National Climate Archives
Date modified: